Flag for Canada

Past Weather in Greater Sudbury, Ontario, Canada — Yesterday and Last 2 Weeks

Now
68 °F

Thunderstorms. Partly sunny.


Feels Like: 68 °F
Forecast: 88 / 66 °F
Wind: 12 mph from Northeast

Location: Sudbury

Current Time: Jul 7, 2020 at 10:06:22 pm

Latest Report: Jul 7, 2020 at 9:00 pm


Visibility: 15 mi

Pressure: 29.87 "Hg

Humidity: 100%

Dew Point: 68 °F

Location of Greater SudburyLocation

Past Weather in Greater Sudbury — Graph

°F

Greater Sudbury Temperature Yesterday

Maximum temperature yesterday: 86 °F (at 5:00 pm)
Minimum temperature yesterday: 63 °F (at 12:00 am)
Average temperature yesterday: 72 °F

High & Low Weather Summary for the Past Weeks

 TemperatureHumidityPressure
High91 °F (Jul 2, 4:00 pm)100% (Jun 23, 2:00 am)30.10 "Hg (Jun 23, 2:00 am)
Low50 °F (Jun 24, 5:00 am)20% (Jul 3, 5:00 pm)29.40 "Hg (Jun 24, 3:00 am)
Average70 °F72%29.85 "Hg
* Reported Jun 22 9:00 pm — Jul 7 9:00 pm, Greater Sudbury. Weather by CustomWeather, © 2020

Note: Actual official high and low records may vary slightly from our data, if they occured in-between our weather recording intervals... More about our weather records

Greater Sudbury Weather History for the Previous 24 Hours

Scroll right to see more
 ConditionsComfort  
Time TempWeatherWind HumidityBarometerVisibility
9:00 pm
Tue, Jul 7
68 °FThunderstorms. Partly sunny.12 mph100%29.87 "Hg15 mi
8:00 pm70 °FThunderstorms. Partly sunny.14 mph88%29.88 "Hg3 mi
7:21 pm66 °FThunderstorms. Partly sunny.10 mph94%29.88 "Hg6 mi
7:00 pm66 °FStrong thunderstorms. Dense fog.23 mph94%29.89 "Hg1 mi
6:46 pm72 °FThunderstorms. Partly sunny.14 mph78%29.86 "Hg2 mi
6:00 pm81 °FThunderstorms. Partly sunny.8 mph70%29.85 "Hg20 mi
5:00 pm81 °FThunderstorms. Scattered clouds.10 mph66%29.84 "Hg20 mi
4:28 pm75 °FThunderstorms. Partly sunny.9 mph74%29.86 "Hg20 mi
4:00 pm73 °FThunderstorms. Partly sunny.9 mph94%29.88 "Hg20 mi
3:32 pm81 °FThunderstorms. Partly sunny.12 mph66%29.88 "Hg20 mi
3:00 pm82 °FScattered showers. Broken clouds.14 mph62%29.88 "Hg20 mi
2:00 pm79 °FPartly sunny.10 mph74%29.90 "Hg20 mi
1:00 pm77 °FPartly sunny.10 mph74%29.91 "Hg20 mi
12:00 pm75 °FOvercast.6 mph78%29.92 "Hg20 mi
11:00 am72 °FMostly cloudy.5 mph88%29.92 "Hg20 mi
9:00 am68 °FSprinkles. More clouds than sun.6 mph94%29.93 "Hg20 mi
8:00 am70 °FSprinkles. Partly sunny.7 mph83%29.91 "Hg20 mi
7:04 am68 °FSprinkles. More clouds than sun.6 mph83%29.91 "Hg20 mi
6:00 am68 °FPartly sunny.10 mph83%29.92 "Hg15 mi
5:00 am68 °FPassing clouds.7 mph73%29.91 "Hg15 mi
4:00 am68 °FPassing clouds.5 mph73%29.93 "Hg15 mi
3:00 am68 °FPassing clouds.7 mph73%29.94 "Hg15 mi
2:00 am68 °FPassing clouds.8 mph73%29.96 "Hg15 mi
1:00 am70 °FPartly cloudy.6 mph69%29.97 "Hg15 mi
12:00 am70 °FPartly cloudy.6 mph69%29.97 "Hg15 mi
11:00 pm
Mon, Jul 6
72 °FPartly cloudy.8 mph65%29.97 "Hg15 mi
10:00 pm73 °FPartly cloudy.8 mph65%29.97 "Hg15 mi
Weather by CustomWeather, © 2020

See weather overview